Regional Weather Roundup
Issued by NWS

Home | Current Version | Previous Version | Graphics & Text | Print | Product List | Glossary On
Versions: 1 2 3 4 5 6 7 8 9 10 11 12 13 14 15 16 17 18 19 20 21 22 23 24 25 26 27 28 29 30 31 32 33 34 35 36 37 38 39 40 41 42 43 44 45 46 47 48 49 50
000
ASUS43 KDMX 300103
RWRIA

WEATHER ROUNDUP FOR IOWA
NATIONAL WEATHER SERVICE DES MOINES IA
800 PM CDT SUN MAY 29 2016

NOTE: "FAIR" INDICATES FEW OR NO CLOUDS BELOW 12,000 FEET WITH NO
SIGNIFICANT WEATHER AND/OR OBSTRUCTIONS TO VISIBILITY.

* - THESE STATIONS ARE NOT NWS STATIONS...THUS NOT UNDER NWS
QUALITY CONTROL.  THEY ALSO DO NOT REPORT WEATHER SUCH
AS PRECIPITATION OR FOG.

IAZ001>003-012>014-020>022-031>034-043>046-300200-
   NORTHWEST IOWA

CITY           SKY/WX    TMP DP  RH WIND       PRES   REMARKS
CARROLL *      CLEAR     79  55  44 NW6       30.00R
CHEROKEE *     CLEAR     74  53  48 N5        30.00S
DENISON *      CLEAR     79  55  44 NW3       29.98S
LE MARS *      CLEAR     75  54  46 NE5       30.01R
ORANGE CITY *  CLEAR     77  48  36 CALM      30.00S
SHELDON *      CLEAR     75  55  50 N3        29.99S
SIOUX CITY     CLEAR     79  57  46 NE6       29.99R HX  80
SPENCER        CLEAR     72  54  53 NW3       30.00S
STORM LAKE *   CLEAR     77  52  41 NW9       30.01S
$$

IAZ055>058-069>071-079>083-090>094-300200-
   SOUTHWEST IOWA

CITY           SKY/WX    TMP DP  RH WIND       PRES   REMARKS
ATLANTIC *     CLEAR     79  57  47 CALM      30.00R HX  80
AUDUBON *        N/A     77  59  53 CALM      30.02R
CLARINDA *       N/A     77  64  65 MISG      30.01R
COUNCIL BLFS * CLEAR     79  59  50 CALM      30.00R HX  80
CRESTON *      CLEAR     79  59  50 CALM      30.03R HX  80
HARLAN  *      CLEAR     81  57  44 S3        30.04R HX  81
LAMONI           N/A     79  64  60 CALM      30.02R HX  81
RED OAK *      CLEAR     79  68  69 CALM      30.00R HX  81
SHENANDOAH *   CLOUDY    79  64  61 CALM      30.00R HX  81
$$

IAZ047>049-059>061-072>074-084-300200-
   CENTRAL IOWA

CITY           SKY/WX    TMP DP  RH WIND       PRES   REMARKS
AMES           CLEAR     79  57  46 W6        29.98S HX  80
ANKENY *       CLEAR     79  57  47 SW5       29.99S HX  80
BOONE *        CLEAR     79  57  47 W6        29.99R HX  80
CHARITON *     CLEAR     79  61  53 CALM      30.01S HX  80
DES MOINES     PTCLDY    80  54  40 W5        29.99S HX  80
GRINNELL*      CLEAR     77  57  50 SW6       30.01S
KNOXVILLE *    CLEAR     79  57  47 SW3       30.00S HX  80
MARSHALLTOWN   CLEAR     75  56  51 W8        29.98S
NEWTON *       CLEAR     77  61  57 SW7       29.99F
PELLA *        CLEAR     78  58  49 CALM      30.01S
PERRY *          N/A     79  55  44 SW6       29.99S
$$

IAZ004>006-015-016-023>025-035-036-300200-
   NORTH CENTRAL IOWA

CITY           SKY/WX    TMP DP  RH WIND       PRES   REMARKS
ALGONA *       CLEAR     75  50  41 W8        30.00S
CLARION *      CLEAR     75  57  53 NW14      29.98S
ESTHERVILLE    CLEAR     71  57  61 NW7       29.99S
FORT DODGE *   PTCLDY    79  54  41 NW7       29.99S
MASON CITY     CLEAR     72  60  66 W8        29.99S
FOREST CITY *  CLEAR     72  54  53 W8        29.99R
WEBSTER CITY * CLEAR     79  55  44 NW10      29.97R
IOWA FALLS *     N/A     77  61  57 NE6       30.00R
$$

IAZ007>011-017>019-026>030-037>042-050>054-066-300200-
   NORTHEAST IOWA

CITY           SKY/WX    TMP DP  RH WIND       PRES   REMARKS
CEDAR RAPIDS   CLEAR     75  60  59 SW6       29.98F
CHARLES CITY * CLEAR     75  57  53 W6        29.98S
CLINTON *      CLEAR     74  60  61 SW8       30.00S
DECORAH *      CLEAR     73  59  60 CALM      29.96S
DUBUQUE        CLOUDY    73  58  59 NW3       29.99S
MONTICELLO *   CLEAR     75  61  60 CALM      29.99S
OELWEIN *      MOCLDY    75  57  53 CALM      29.99S
WATERLOO       PTCLDY    74  58  57 N6        29.97R
$$

IAZ064-065-067-068-078-300200-
   EAST CENTRAL IOWA

CITY           SKY/WX    TMP DP  RH WIND       PRES   REMARKS
DAVENPORT      CLEAR     77  56  48 W7        30.00S
IOWA CITY      CLEAR     78  57  48 SW3       30.00S
MT. PLEASANT * CLEAR     81  63  54 CALM      30.01F HX  82
MUSCATINE *    CLEAR     77  59  53 SW5       30.00F
QUAD CITIES    CLEAR     77  57  50 SW6       29.99S
$$

IAZ062-063-075>077-085>089-095>099-300200-
   SOUTHEAST IOWA

CITY           SKY/WX    TMP DP  RH WIND       PRES   REMARKS
BURLINGTON     CLEAR     78  60  53 CALM      30.01F
FAIRFIELD *      N/A    N/A N/A N/A MISG        N/A
FORT MADISON * CLEAR     79  59  50 CALM      30.03S HX  80
KEOKUK *       CLOUDY    79  63  57 CALM      30.01F HX  80
OSKALOOSA *      N/A     79  54  41 W6        30.01S
OTTUMWA        CLEAR     78  58  49 SW5       30.01R
WASHINGTON *   CLEAR     77 -33   1 SW3       30.02S
$$

ABBREVIATIONS USED IN REMARKS
   TC - TEMPERATURES IN CELSIUS
  WCI - WIND CHILL INDEX
   HX - HEAT INDEX
  VSB - VISIBILITY
$$




USA.gov is the U.S. government's official web portal to all federal, state and local government web resources and services.